Weather reports worldwide

Advertisment
Brest, France (7110): temperature & dewpoint: 10.01.2018 08:00:00 - 16.01.2018 08:00:00 (CET)Brest, France (7110): temperature 5cm: 10.01.2018 08:00:00 - 16.01.2018 08:00:00 (CET)Brest, France (7110): temperature -20cm & temperature -100cm: 10.01.2018 08:00:00 - 16.01.2018 08:00:00 (CET)Brest, France (7110): wind speed & gusts: 10.01.2018 08:00:00 - 16.01.2018 08:00:00 (CET)Brest, France (7110): wind direction: 10.01.2018 08:00:00 - 16.01.2018 08:00:00 (CET)Brest, France (7110): reduced air pressure: 10.01.2018 08:00:00 - 16.01.2018 08:00:00 (CET)Brest, France (7110): visibility: 10.01.2018 08:00:00 - 16.01.2018 08:00:00 (CET)Brest, France (7110): sunshine duration: 10.01.2018 08:00:00 - 16.01.2018 08:00:00 (CET)Brest, France (7110): precipitation: 10.01.2018 08:00:00 - 16.01.2018 08:00:00 (CET)
Date & Time tt [°C] td [°C] tt 5cm [°C] tt -20cm [°C] tt -100cm [°C] ff [km/h] ff [kn] fx [km/h] fx [kn] dd ppp [hPa] vv [km] sd [min] rr [mm]
16.01.2018 08:00:00 9,8 6,0 7,7 8,2 9,0 29 15 63 34 W 1008,0 11 0 0,0
16.01.2018 07:00:00 10,3 6,6 8,0 8,2 9,0 31 17 55 30 W 1007,4 11 0 0,0
16.01.2018 06:00:00 10,0 6,5 8,0 8,2 9,0 31 17 64 35 WNW 1007,1 10 0 0,0
16.01.2018 05:00:00 10,3 7,9 8,5 8,2 9,0 27 15 61 33 W 1006,8 11 0 0,2
16.01.2018 04:00:00 10,2 8,5 8,7 8,2 9,0 26 14 53 28 W 1006,9 9 0 0,0
16.01.2018 03:00:00 10,1 8,5 9,0 8,2 9,0 32 17 57 31 W 1007,0 12 0 0,2
16.01.2018 02:00:00 10,4 8,7 8,6 8,2 9,0 27 14 54 29 W 1006,9 13 0 0,0
16.01.2018 01:00:00 10,1 8,7 9,0 8,2 9,0 28 15 51 28 W 1007,5 10 0 0,0
16.01.2018 00:00:00 10,2 7,3 8,3 8,1 9,0 22 12 54 29 W 1007,5 10 0 0,0
15.01.2018 23:00:00 10,1 8,4 8,5 8,2 9,0 31 17 56 30 W 1007,5 18 0 0,6
15.01.2018 22:00:00 9,7 7,8 8,6 8,1 9,0 19 11 51 28 W 1007,3 3,4 0 0,2
15.01.2018 21:00:00 10,3 8,1 8,7 8,1 9,0 31 17 60 33 WNW 1007,3 10 0 0,2
15.01.2018 20:00:00 10,5 9,1 9,4 8,0 9,0 25 13 51 28 W 1006,8 11 0 0,0
15.01.2018 19:00:00 10,0 8,8 8,6 8,0 9,0 22 12 41 22 W 1006,8 16 0 0,0
15.01.2018 18:00:00 10,1 8,4 9,3 7,9 9,0 24 13 48 26 W 1006,9 10 0 0,0
15.01.2018 17:00:00 10,6 8,7 9,9 7,9 9,0 26 14 46 25 W 1006,6 10 0 0,0
15.01.2018 16:00:00 10,0 8,4 9,9 7,8 9,1 24 13 59 32 W 1006,7 10 0 0,2
15.01.2018 15:00:00 10,9 9,3 10,9 7,7 9,1 29 16 56 30 W 1006,6 10 1 0,0
15.01.2018 14:00:00 11,0 9,7 11,1 7,7 9,1 31 17 64 35 W 1006,4 10 0 0,4
15.01.2018 13:00:00 11,0 10,4 11,1 7,5 9,1 25 13 64 35 W 1006,6 2,0 0 0,4
15.01.2018 12:00:00 11,3 10,8 11,3 7,4 9,1 31 17 58 32 W 1007,2 3,3 0 0,6
15.01.2018 11:00:00 11,3 10,7 10,8 7,4 9,2 39 21 62 33 WSW 1007,4 3,0 0 1,8
15.01.2018 10:00:00 11,0 10,5 10,1 7,3 9,2 40 22 68 37 WSW 1007,7 2,3 0 3,0
15.01.2018 09:00:00 10,4 9,9 9,6 7,2 9,2 40 21 75 40 SW 1008,5 2,3 0 2,7
15.01.2018 08:00:00 9,9 9,4 9,1 7,2 9,2 41 22 69 37 SW 1009,6 5 0 2,2
15.01.2018 07:00:00 9,4 8,8 8,8 7,2 9,2 41 22 69 37 SW 1010,8 2,1 0 2,0
15.01.2018 06:00:00 9,3 8,4 8,7 7,1 9,2 40 22 57 31 SW 1012,1 4,3 0 1,2
15.01.2018 05:00:00 9,6 7,5 8,6 7,1 9,2 31 17 48 26 SW 1013,4 10 0 0,0
15.01.2018 04:00:00 9,6 6,9 8,2 7,1 9,2 28 15 45 24 SW 1014,5 51 0 0,0
15.01.2018 03:00:00 9,3 7,4 7,8 7,1 9,2 28 15 41 22 SW 1015,7 10 0 0,0
15.01.2018 02:00:00 8,4 7,8 7,0 7,1 9,2 18 10 36 19 SSW 1017,1 10 0 0,0
15.01.2018 01:00:00 7,6 7,2 5,6 7,2 9,2 28 15 42 23 SSW 1017,8 10 0 0,0
15.01.2018 00:00:00 6,2 5,9 5,1 7,2 9,2 18 10 26 14 S 1018,3 7 0 0,0
14.01.2018 23:00:00 5,7 5,4 2,9 7,2 9,2 16 9 22 12 S 1018,9 9 0 0,0
14.01.2018 22:00:00 5,0 4,6 2,2 7,2 9,2 12 7 18 10 S 1019,4 4,7 0 0,0
14.01.2018 21:00:00 4,6 4,0 -0,6 7,2 9,2 11 6 19 10 S 1019,4 5 0 0,0
14.01.2018 20:00:00 5,1 4,1 -0,6 7,2 9,2 8 5 18 10 SW 1019,2 6 0 0,0
14.01.2018 19:00:00 6,5 5,0 3,9 7,1 9,2 9 5 15 8 SW 1018,8 7 0 0,0
14.01.2018 18:00:00 7,1 5,6 6,4 7,1 9,2 8 4 11 6 S 1018,2 7 0 0,0
14.01.2018 17:00:00 7,6 5,7 7,5 7,0 9,2 5 3 12 7 WSW 1018,4 8 0 0,0
14.01.2018 16:00:00 8,2 4,6 8,7 7,0 9,2 4 2 9 5 NNW 1018,2 13 0 0,0
14.01.2018 15:00:00 8,1 5,0 9,6 7,0 9,2 5 3 9 5 WSW 1018,0 8 9 0,0
14.01.2018 14:00:00 7,8 5,6 9,6 7,0 9,3 3 1 8 4 NNE 1017,6 8 2 0,0
14.01.2018 13:00:00 7,7 5,7 9,6 7,1 9,2 4 2 7 4 - 1018,3 10 38 0,0
14.01.2018 12:00:00 6,8 6,5 5,9 7,1 9,2 0 0 5 3 N 1018,3 9 53 0,0
14.01.2018 11:00:00 4,5 4,5 -1,2 7,2 9,3 2 1 4 2 SE 1018,1 2,6 49 0,0
14.01.2018 10:00:00 1,0 1,0 -2,4 7,2 9,2 0 0 2 1 N 1017,8 1,4 0 0,0
14.01.2018 09:00:00 0,9 0,9 -2,3 7,2 9,2 2 1 8 4 ESE 1017,1 0,2 0 0,0
14.01.2018 08:00:00 2,4 2,4 -1,3 7,3 9,3 7 4 8 4 ENE 1016,6 2,4 0 0,0
14.01.2018 07:00:00 2,6 2,6 -0,5 7,3 9,3 3 2 14 7 NE 1016,3 2,7 0 0,0
14.01.2018 06:00:00 3,6 3,6 3,0 7,3 9,3 10 5 14 8 NE 1016,0 4,0 0 0,0
14.01.2018 05:00:00 3,7 3,7 2,5 7,3 9,3 9 5 16 8 N 1015,5 4,0 0 0,0
14.01.2018 04:00:00 4,0 4,0 1,9 7,3 9,3 6 3 11 6 NE 1015,3 3,2 0 0,0
14.01.2018 03:00:00 4,1 4,1 2,7 7,4 9,3 5 3 12 7 NNE 1014,9 0,8 0 0,2
14.01.2018 02:00:00 4,6 4,3 3,8 7,4 9,3 2 1 8 4 - 1015,0 4,9 0 0,0
14.01.2018 01:00:00 4,4 4,1 3,8 7,4 9,3 2 1 12 6 SE 1014,9 8 0 0,0
14.01.2018 00:00:00 4,6 4,3 4,0 7,4 9,3 9 5 14 8 SE 1014,6 6 0 0,2
13.01.2018 23:00:00 4,7 4,6 4,4 7,4 9,3 9 5 18 10 SSE 1014,5 8 0 0,2
13.01.2018 22:00:00 5,0 4,9 4,7 7,4 9,4 11 6 17 9 SE 1014,1 6 0 0,6
13.01.2018 21:00:00 5,2 4,9 5,0 7,4 9,3 9 5 20 11 SE 1013,8 6 0 0,2
13.01.2018 20:00:00 5,4 5,1 5,1 7,4 9,3 10 6 16 9 SE 1013,2 8 0 0,2
13.01.2018 19:00:00 5,6 5,2 5,2 7,4 9,4 9 5 19 11 ESE 1013,0 7 0 0,4
13.01.2018 18:00:00 5,7 5,3 5,4 7,3 9,4 15 8 24 13 SE 1012,9 6 0 0,8
13.01.2018 17:00:00 6,1 5,7 5,9 7,2 9,3 16 8 25 14 SE 1012,6 4,5 0 1,2
13.01.2018 16:00:00 6,4 5,8 6,2 7,2 9,3 16 8 31 17 SE 1012,3 6 0 0,8
13.01.2018 15:00:00 6,8 6,1 6,8 7,2 9,4 18 10 30 16 SE 1012,2 7 0 0,8
13.01.2018 14:00:00 7,1 6,4 7,0 7,2 9,4 20 11 34 19 SE 1012,5 7 0 0,4
13.01.2018 13:00:00 7,0 6,1 6,7 7,2 9,4 22 12 36 19 SE 1013,1 7 0 0,6
13.01.2018 12:00:00 6,9 5,8 6,4 7,2 9,4 22 12 34 18 SSE 1013,5 9 0 0,0
13.01.2018 11:00:00 6,6 5,9 6,2 7,1 9,4 21 11 39 21 SSE 1013,5 9 0 0,0
13.01.2018 10:00:00 6,5 5,9 6,1 7,1 9,4 23 13 40 22 SE 1013,6 8 0 0,0
13.01.2018 09:00:00 6,5 5,9 6,1 7,1 9,4 27 14 42 23 SE 1013,6 8 0 0,0
13.01.2018 08:00:00 6,5 5,9 6,1 7,1 9,4 28 15 49 26 SSE 1013,8 8 0 0,4
13.01.2018 07:00:00 6,5 5,8 5,9 7,1 9,4 30 16 48 26 SSE 1013,7 7 0 1,2
13.01.2018 06:00:00 6,5 5,6 5,7 7,1 9,4 28 15 44 24 SSE 1014,0 10 0 0,2
13.01.2018 05:00:00 6,3 5,1 5,8 7,1 9,4 26 14 48 26 SSE 1014,5 8 0 0,2
13.01.2018 04:00:00 6,4 5,2 6,1 7,1 9,4 28 15 44 24 SSE 1015,0 13 0 0,0
13.01.2018 03:00:00 6,3 4,9 6,0 7,1 9,4 28 15 54 29 SSE 1015,7 10 0 0,0
13.01.2018 02:00:00 6,5 5,0 6,0 7,0 9,4 36 20 56 30 SSE 1016,3 15 0 0,0
13.01.2018 01:00:00 6,3 5,1 5,7 7,0 9,4 29 16 50 27 SSE 1017,5 14 0 0,0
13.01.2018 00:00:00 6,0 4,8 5,6 7,0 9,4 25 13 41 22 SSE 1018,3 12 0 0,0
12.01.2018 23:00:00 5,8 4,8 5,1 7,0 9,4 28 15 47 26 SSE 1018,9 11 0 0,0
12.01.2018 22:00:00 5,8 4,8 5,2 7,0 9,4 29 16 46 25 SSE 1019,7 10 0 0,0
12.01.2018 21:00:00 5,8 4,8 5,2 7,0 9,4 29 16 48 26 SSE 1020,0 9 0 0,0
12.01.2018 20:00:00 5,9 5,0 5,3 6,9 9,4 25 14 45 24 SSE 1020,3 8 0 0,0
12.01.2018 19:00:00 5,9 5,0 5,4 6,9 9,4 24 13 37 20 SSE 1020,7 6 0 0,0
12.01.2018 18:00:00 6,1 5,4 5,7 6,9 9,4 21 12 32 17 SSE 1021,3 6 0 0,0
12.01.2018 17:00:00 6,3 5,6 6,2 6,8 9,4 18 10 36 19 SSE 1021,8 5 0 0,0
12.01.2018 16:00:00 6,5 5,8 6,9 6,8 9,4 21 11 30 16 SSE 1022,2 6 0 0,0
12.01.2018 15:00:00 6,0 5,6 6,3 6,9 9,4 16 9 26 14 SSE 1022,8 4,0 0 0,0
12.01.2018 14:00:00 5,4 4,4 6,8 6,9 9,4 17 9 24 13 SSE 1023,6 4,0 27 0,0
12.01.2018 13:00:00 7,2 6,3 8,7 7,0 9,5 15 8 23 13 SSE 1024,3 10 60 0,0
12.01.2018 12:00:00 5,7 5,7 5,2 7,1 9,5 15 8 22 12 SSE 1025,1 7 57 0,0
12.01.2018 11:00:00 3,6 3,6 -3,9 7,1 9,4 15 8 19 10 SSE 1025,8 4,3 60 0,0
12.01.2018 10:00:00 0,6 0,6 -5,2 7,2 9,5 9 5 13 7 SE 1025,8 4,8 4 0,0
12.01.2018 09:00:00 0,2 0,2 -5,0 7,3 9,5 9 5 13 7 SE 1025,7 3,5 0 0,0
12.01.2018 08:00:00 0,1 0,1 -4,6 7,4 9,5 8 4 12 6 SSE 1025,9 2,8 0 0,0
12.01.2018 07:00:00 -1,3 -1,3 -4,8 7,5 9,5 5 3 11 6 S 1025,6 0,2 0 0,0
12.01.2018 06:00:00 -0,5 -0,5 -4,3 7,6 9,5 9 5 11 6 SSE 1025,7 0,2 0 0,0
12.01.2018 05:00:00 -0,2 -0,2 -4,4 7,7 9,5 5 3 8 4 SSE 1026,1 0,2 0 0,0
12.01.2018 04:00:00 -1,4 -1,4 -4,6 7,7 9,5 5 3 9 5 SSW 1026,7 0,7 0 0,0
12.01.2018 03:00:00 -0,3 -0,3 -4,2 7,8 9,5 4 2 5 3 SSW 1026,6 0,2 0 0,0
12.01.2018 02:00:00 -0,1 -0,1 -4,1 7,9 9,5 3 2 4 2 WSW 1027,0 0,1 0 0,0
12.01.2018 01:00:00 1,5 1,5 -3,8 8,0 9,5 2 1 6 3 S 1026,6 0,9 0 0,0
12.01.2018 00:00:00 1,6 1,6 -3,6 8,0 9,5 0 0 7 4 N 1026,3 0,3 0 0,0
11.01.2018 23:00:00 1,6 1,6 -2,6 8,1 9,5 0 0 9 5 N 1026,2 5 0 0,0
11.01.2018 22:00:00 3,2 2,9 -2,0 8,1 9,5 6 3 11 6 E 1025,8 8 0 0,0
11.01.2018 21:00:00 4,5 3,9 -0,6 8,1 9,5 7 4 11 6 NNE 1025,7 7 0 0,0
11.01.2018 20:00:00 5,6 4,7 1,4 8,1 9,5 7 4 13 7 N 1024,8 4,8 0 0,0
11.01.2018 19:00:00 6,7 5,5 4,2 8,1 9,5 8 4 15 8 N 1023,9 9 0 0,0
11.01.2018 18:00:00 7,8 6,1 6,2 8,0 9,5 10 6 24 13 NNE 1022,8 13 7 0,0
11.01.2018 17:00:00 9,2 6,3 8,6 8,0 9,5 17 9 27 14 NNE 1022,5 20 54 0,0
11.01.2018 16:00:00 10,2 6,5 9,6 8,0 9,5 16 8 40 21 NE 1021,4 38 47 0,0
11.01.2018 15:00:00 10,6 7,1 12,6 7,9 9,5 18 10 35 19 NNE 1020,3 19 46 0,0
11.01.2018 14:00:00 10,3 7,2 10,1 7,9 9,5 22 12 35 19 NE 1019,4 19 45 0,0
11.01.2018 13:00:00 9,6 7,0 8,5 7,9 9,5 16 8 34 18 NE 1019,3 20 39 0,0
11.01.2018 12:00:00 9,0 7,1 8,5 7,9 9,5 18 10 30 16 NE 1018,3 10 31 0,0
11.01.2018 11:00:00 9,0 7,8 7,2 7,9 9,5 18 10 34 19 NE 1017,0 20 27 0,0
11.01.2018 10:00:00 8,0 7,4 6,4 7,9 9,5 13 7 28 15 NNE 1015,7 18 0 0,0
11.01.2018 09:00:00 7,7 7,3 6,7 7,9 9,5 14 8 25 14 NE 1013,5 19 0 0,0
11.01.2018 08:00:00 7,4 7,1 5,7 7,9 9,5 15 8 26 14 NE 1011,8 18 0 0,0
11.01.2018 07:00:00 6,7 6,6 5,7 7,9 9,5 13 7 22 12 NE 1010,1 10 0 0,0
11.01.2018 06:00:00 7,0 6,7 6,4 7,9 9,5 13 7 21 11 ENE 1008,4 12 0 0,0
11.01.2018 05:00:00 7,1 6,7 6,7 7,9 9,5 3 2 14 7 N 1007,0 16 0 0,0
11.01.2018 04:00:00 7,1 6,7 6,8 7,9 9,6 10 5 22 12 NW 1005,8 20 0 0,0
11.01.2018 03:00:00 7,2 6,8 6,7 7,9 9,5 11 6 23 12 WNW 1004,9 10 0 0,2
11.01.2018 02:00:00 7,2 6,8 6,7 7,9 9,6 10 5 26 14 W 1004,1 12 0 0,4
11.01.2018 01:00:00 7,2 6,8 6,8 7,8 9,5 16 9 31 17 WNW 1003,7 10 0 1,8
11.01.2018 00:00:00 7,2 6,5 6,6 7,8 9,6 9 5 22 12 WSW 1002,8 6 0 2,8
10.01.2018 23:00:00 7,8 6,7 6,5 7,8 9,5 11 6 21 11 ESE 1002,0 6 0 0,0
10.01.2018 22:00:00 7,7 6,5 6,7 7,8 9,5 15 8 29 16 ESE 1001,6 10 0 0,0
10.01.2018 21:00:00 7,9 6,7 7,0 7,7 9,5 21 11 36 20 SE 1001,3 10 0 0,2
10.01.2018 20:00:00 7,8 6,4 6,6 7,7 9,6 18 10 37 20 SE 1001,4 10 0 0,0
10.01.2018 19:00:00 8,0 6,3 6,7 7,7 9,6 22 12 42 23 SE 1001,6 10 0 0,0
10.01.2018 18:00:00 8,7 7,0 7,8 7,6 9,6 27 15 50 27 SSE 1002,0 12 0 1,2
10.01.2018 17:00:00 9,6 6,5 9,0 7,6 9,6 28 15 44 24 SE 1002,2 20 0 0,0
10.01.2018 16:00:00 10,0 6,5 9,5 7,6 9,6 27 15 44 24 SSE 1002,5 38 22 0,0
10.01.2018 15:00:00 10,3 6,6 10,4 7,6 9,6 21 11 37 20 SSE 1003,3 20 17 0,0
10.01.2018 14:00:00 10,7 6,4 11,8 7,6 9,6 24 13 35 19 SSE 1004,0 19 60 0,0
10.01.2018 13:00:00 10,4 7,1 12,0 7,6 9,6 18 10 29 15 S 1005,3 10 60 0,0
10.01.2018 12:00:00 9,5 7,1 9,1 7,7 9,6 15 8 23 12 SSE 1006,1 20 60 0,0
10.01.2018 11:00:00 8,0 7,2 1,3 7,7 9,6 12 6 16 9 SSE 1006,5 17 60 0,0
10.01.2018 10:00:00 5,6 5,3 0,5 7,8 9,6 11 6 18 10 SSE 1007,2 0,8 26 0,0
10.01.2018 09:00:00 4,8 4,4 -0,3 7,9 9,6 11 6 14 8 S 1007,2 17 0 0,2
10.01.2018 08:00:00 4,7 4,0 -0,2 7,9 9,6 11 6 13 7 S 1007,3 10 0 0,0

tt = temperature
td = dewpoint
tt 5cm = temperature 5cm
tt -20cm = temperature -20cm
tt -100cm = temperature -100cm
ff = wind speed
fx = gusts
dd = wind direction
ppp = reduced air pressure
vv = visibility
sd = sunshine duration
rr = precipitation

Next stations